RYR9782 GMTT-GMMD

Flight info

Callsign RYR9782
Flight time 0h 46m
Altitude 29000
Route MADOV UM240 FES UM372 DIDOV
Aircraft B738/M-SDE2E3FGHIRWXY/LB1

Departure

Time 2026-05-05 15:18
Airport Tangier Ibn Battuta Airport (GMTT)

Arrival

Time 2026-05-05 16:05
Airport Beni Mellal Airport (GMMD)
Time Latitude Longitude Altitude Speed Heading
2026-05-05 14:47 35.72528 -5.91346 62 ft 0 kts 355°
2026-05-05 15:11 35.72513 -5.91345 58 ft 2 kts 355°
2026-05-05 15:11 35.72497 -5.91343 57 ft 2 kts 355°
2026-05-05 15:12 35.72480 -5.91341 57 ft 2 kts 351°
2026-05-05 15:12 35.72465 -5.91335 58 ft 2 kts 300°
2026-05-05 15:12 35.72462 -5.91324 59 ft 1 kts 266°
2026-05-05 15:12 35.72462 -5.91323 59 ft 0 kts 266°
2026-05-05 15:13 35.72462 -5.91327 59 ft 1 kts 266°
2026-05-05 15:13 35.72453 -5.91354 62 ft 8 kts 242°
2026-05-05 15:13 35.72433 -5.91445 62 ft 14 kts 263°
2026-05-05 15:14 35.72430 -5.91571 61 ft 15 kts 278°
2026-05-05 15:14 35.72483 -5.91669 60 ft 14 kts 330°
2026-05-05 15:14 35.72575 -5.91692 59 ft 14 kts 355°
2026-05-05 15:14 35.72688 -5.91704 59 ft 18 kts 355°
2026-05-05 15:15 35.72832 -5.91716 58 ft 22 kts 356°
2026-05-05 15:15 35.72937 -5.91682 57 ft 15 kts 63°
2026-05-05 15:15 35.72933 -5.91550 60 ft 17 kts 97°
2026-05-05 15:15 35.72915 -5.91372 63 ft 23 kts 96°
2026-05-05 15:16 35.72897 -5.91177 62 ft 23 kts 97°
2026-05-05 15:16 35.72879 -5.90986 68 ft 22 kts 96°
2026-05-05 15:16 35.72861 -5.90803 70 ft 21 kts 96°
2026-05-05 15:16 35.72844 -5.90622 72 ft 21 kts 96°
2026-05-05 15:17 35.72828 -5.90449 65 ft 20 kts 97°
2026-05-05 15:17 35.72817 -5.90296 75 ft 16 kts 86°
2026-05-05 15:17 35.72881 -5.90198 71 ft 15 kts 16°
2026-05-05 15:17 35.72975 -5.90239 68 ft 16 kts 309°
2026-05-05 15:18 35.73009 -5.90428 72 ft 39 kts 277°
2026-05-05 15:18 35.73077 -5.91148 66 ft 127 kts 277°
2026-05-05 15:18 35.73202 -5.92484 330 ft 178 kts 277°
2026-05-05 15:18 35.73346 -5.94048 1372 ft 180 kts 278°
2026-05-05 15:19 35.73513 -5.95568 2580 ft 185 kts 278°
2026-05-05 15:19 35.73693 -5.97197 3166 ft 202 kts 277°
2026-05-05 15:19 35.73885 -5.98970 3653 ft 216 kts 278°
2026-05-05 15:19 35.74023 -6.00841 4349 ft 223 kts 265°
2026-05-05 15:20 35.73518 -6.02647 5056 ft 233 kts 239°
2026-05-05 15:20 35.72348 -6.04053 5976 ft 238 kts 213°
2026-05-05 15:20 35.70766 -6.04688 6806 ft 247 kts 186°
2026-05-05 15:20 35.69059 -6.04435 7678 ft 251 kts 163°
2026-05-05 15:21 35.67541 -6.03358 8457 ft 261 kts 137°
2026-05-05 15:21 35.66564 -6.01472 9261 ft 267 kts 106°
2026-05-05 15:21 35.66385 -5.99188 10098 ft 270 kts 94°
2026-05-05 15:21 35.66171 -5.96855 10802 ft 276 kts 98°
2026-05-05 15:22 35.65920 -5.94528 11573 ft 279 kts 98°
2026-05-05 15:22 35.65673 -5.92122 12378 ft 283 kts 97°
2026-05-05 15:22 35.65388 -5.89733 13164 ft 287 kts 108°
2026-05-05 15:22 35.64443 -5.87584 13926 ft 288 kts 135°
2026-05-05 15:23 35.62833 -5.86041 14304 ft 305 kts 156°
2026-05-05 15:23 35.60802 -5.84922 14527 ft 333 kts 161°
2026-05-05 15:23 35.58589 -5.83833 14761 ft 356 kts 161°
2026-05-05 15:23 35.56248 -5.82692 15374 ft 365 kts 161°
2026-05-05 15:24 35.53901 -5.81528 16123 ft 368 kts 161°
2026-05-05 15:24 35.51515 -5.80323 16879 ft 371 kts 160°
2026-05-05 15:24 35.49107 -5.79095 17621 ft 376 kts 160°
2026-05-05 15:24 35.46675 -5.77850 18360 ft 380 kts 160°
2026-05-05 15:25 35.44210 -5.76588 18996 ft 384 kts 160°
2026-05-05 15:25 35.41734 -5.75322 19656 ft 387 kts 160°
2026-05-05 15:25 35.39246 -5.74109 20284 ft 389 kts 162°
2026-05-05 15:25 35.36710 -5.72964 20881 ft 392 kts 163°
2026-05-05 15:26 35.34123 -5.71827 21471 ft 395 kts 164°
2026-05-05 15:26 35.31511 -5.70681 22073 ft 399 kts 164°
2026-05-05 15:26 35.28904 -5.69531 22664 ft 402 kts 164°
2026-05-05 15:26 35.26250 -5.68352 23257 ft 405 kts 164°
2026-05-05 15:27 35.23588 -5.67165 23751 ft 409 kts 164°
2026-05-05 15:27 35.20917 -5.65970 24231 ft 410 kts 164°
2026-05-05 15:27 35.18254 -5.64778 24747 ft 411 kts 164°
2026-05-05 15:27 35.15556 -5.63570 25270 ft 412 kts 164°
2026-05-05 15:28 35.12872 -5.62369 25972 ft 407 kts 164°
2026-05-05 15:28 35.10219 -5.61181 26685 ft 403 kts 165°
2026-05-05 15:28 35.07581 -5.60003 27274 ft 403 kts 165°
2026-05-05 15:28 35.04983 -5.58845 27828 ft 403 kts 165°
2026-05-05 15:29 35.02346 -5.57670 28420 ft 401 kts 165°
2026-05-05 15:29 34.99724 -5.56502 28986 ft 401 kts 165°
2026-05-05 15:29 34.97063 -5.55320 28971 ft 405 kts 164°
2026-05-05 15:30 34.91875 -5.52725 29002 ft 403 kts 160°
2026-05-05 15:30 34.86775 -5.49881 28996 ft 405 kts 160°
2026-05-05 15:31 34.81647 -5.47028 29001 ft 407 kts 160°
2026-05-05 15:31 34.76455 -5.44178 29001 ft 408 kts 160°
2026-05-05 15:32 34.71283 -5.41358 28997 ft 408 kts 160°
2026-05-05 15:32 34.66086 -5.38530 28991 ft 408 kts 160°
2026-05-05 15:33 34.60921 -5.35724 28997 ft 408 kts 160°
2026-05-05 15:33 34.55745 -5.32915 29000 ft 407 kts 160°
2026-05-05 15:34 34.50587 -5.30120 28988 ft 406 kts 160°
2026-05-05 15:34 34.46282 -5.27790 28996 ft 405 kts 160°
2026-05-05 15:35 34.41143 -5.25012 29000 ft 405 kts 161°
2026-05-05 15:35 34.35148 -5.21775 28999 ft 405 kts 161°
2026-05-05 15:36 34.30849 -5.19492 28999 ft 404 kts 163°
2026-05-05 15:36 34.25608 -5.16993 29007 ft 404 kts 165°
2026-05-05 15:37 34.20370 -5.14543 29001 ft 406 kts 165°
2026-05-05 15:37 34.15117 -5.12056 29011 ft 407 kts 166°
2026-05-05 15:38 34.09834 -5.09540 29012 ft 407 kts 166°
2026-05-05 15:38 34.04568 -5.07034 29019 ft 407 kts 167°
2026-05-05 15:39 33.99312 -5.04537 29014 ft 406 kts 168°
2026-05-05 15:39 33.94024 -5.02739 29014 ft 379 kts 191°
2026-05-05 15:39 33.91473 -5.03196 29028 ft 363 kts 206°
2026-05-05 15:40 33.89206 -5.04376 29027 ft 349 kts 219°
2026-05-05 15:40 33.85261 -5.07701 29016 ft 347 kts 223°
2026-05-05 15:41 33.81368 -5.11163 29013 ft 347 kts 223°
2026-05-05 15:41 33.77482 -5.14577 29031 ft 347 kts 223°
2026-05-05 15:42 33.73578 -5.17970 29011 ft 344 kts 222°
2026-05-05 15:42 33.71659 -5.19625 29000 ft 331 kts 222°
2026-05-05 15:42 33.69817 -5.21210 28905 ft 320 kts 223°
2026-05-05 15:42 33.68049 -5.22734 28771 ft 311 kts 223°
2026-05-05 15:43 33.66298 -5.24246 28435 ft 307 kts 223°
2026-05-05 15:43 33.64583 -5.25728 28132 ft 303 kts 223°
2026-05-05 15:43 33.62866 -5.27212 27771 ft 301 kts 222°
2026-05-05 15:43 33.61189 -5.28660 27424 ft 299 kts 222°
2026-05-05 15:44 33.59504 -5.30113 27080 ft 297 kts 222°
2026-05-05 15:44 33.57818 -5.31567 26741 ft 296 kts 222°
2026-05-05 15:44 33.56158 -5.32997 26404 ft 297 kts 221°
2026-05-05 15:44 33.54458 -5.34463 26070 ft 305 kts 221°
2026-05-05 15:45 33.52694 -5.35985 25697 ft 317 kts 221°
2026-05-05 15:45 33.50899 -5.37527 25324 ft 317 kts 221°
2026-05-05 15:45 33.49124 -5.39047 24957 ft 316 kts 221°
2026-05-05 15:45 33.47333 -5.40583 24588 ft 315 kts 220°
2026-05-05 15:46 33.45564 -5.42099 24215 ft 314 kts 220°
2026-05-05 15:46 33.43781 -5.43625 23816 ft 314 kts 220°
2026-05-05 15:46 33.41993 -5.45154 23384 ft 314 kts 220°
2026-05-05 15:46 33.40234 -5.46649 23011 ft 313 kts 220°
2026-05-05 15:47 33.38442 -5.48126 22682 ft 310 kts 219°
2026-05-05 15:47 33.37261 -5.49089 22439 ft 308 kts 219°
2026-05-05 15:47 33.34912 -5.51000 21968 ft 306 kts 219°
2026-05-05 15:47 33.33147 -5.52437 21609 ft 304 kts 219°
2026-05-05 15:48 33.31395 -5.53865 21245 ft 303 kts 219°
2026-05-05 15:48 33.29676 -5.55267 20907 ft 301 kts 220°
2026-05-05 15:48 33.27942 -5.56682 20550 ft 300 kts 219°
2026-05-05 15:48 33.26222 -5.58086 20201 ft 298 kts 220°
2026-05-05 15:49 33.24535 -5.59462 19873 ft 295 kts 219°
2026-05-05 15:49 33.22837 -5.60848 19530 ft 294 kts 220°
2026-05-05 15:49 33.21149 -5.62225 19176 ft 293 kts 220°
2026-05-05 15:49 33.19460 -5.63602 18836 ft 293 kts 220°
2026-05-05 15:50 33.17797 -5.64958 18520 ft 291 kts 220°
2026-05-05 15:50 33.16121 -5.66323 18210 ft 289 kts 219°
2026-05-05 15:50 33.14450 -5.67684 17830 ft 288 kts 220°
2026-05-05 15:50 33.12803 -5.69025 17471 ft 288 kts 219°
2026-05-05 15:51 33.11143 -5.70376 17117 ft 287 kts 219°
2026-05-05 15:51 33.09499 -5.71713 16796 ft 285 kts 219°
2026-05-05 15:51 33.07875 -5.73033 16485 ft 285 kts 219°
2026-05-05 15:51 33.06245 -5.74357 16123 ft 284 kts 219°
2026-05-05 15:52 33.04596 -5.75695 15786 ft 284 kts 219°
2026-05-05 15:52 33.02975 -5.77012 15446 ft 283 kts 219°
2026-05-05 15:52 33.01356 -5.78325 15156 ft 282 kts 219°
2026-05-05 15:52 32.99733 -5.79641 14847 ft 280 kts 219°
2026-05-05 15:53 32.98107 -5.80959 14489 ft 281 kts 219°
2026-05-05 15:53 32.96508 -5.82256 14143 ft 280 kts 219°
2026-05-05 15:53 32.94904 -5.83554 13861 ft 277 kts 219°
2026-05-05 15:53 32.93303 -5.84851 13500 ft 277 kts 219°
2026-05-05 15:54 32.91717 -5.86135 13150 ft 276 kts 219°
2026-05-05 15:54 32.90129 -5.87420 12826 ft 275 kts 218°
2026-05-05 15:54 32.88561 -5.88687 12508 ft 275 kts 218°
2026-05-05 15:54 32.86988 -5.89959 12213 ft 273 kts 218°
2026-05-05 15:55 32.85414 -5.91230 11909 ft 272 kts 218°
2026-05-05 15:55 32.83849 -5.92494 11636 ft 269 kts 218°
2026-05-05 15:55 32.82303 -5.93741 11367 ft 267 kts 218°
2026-05-05 15:55 32.80776 -5.94974 11136 ft 263 kts 217°
2026-05-05 15:56 32.79279 -5.96180 10869 ft 262 kts 217°
2026-05-05 15:56 32.77756 -5.97408 10547 ft 262 kts 217°
2026-05-05 15:56 32.76266 -5.98609 10315 ft 260 kts 217°
2026-05-05 15:56 32.74766 -5.99818 10060 ft 259 kts 217°
2026-05-05 15:57 32.73292 -6.01004 9804 ft 257 kts 217°
2026-05-05 15:57 32.71807 -6.02199 9503 ft 258 kts 217°
2026-05-05 15:57 32.70312 -6.03403 9179 ft 257 kts 217°
2026-05-05 15:57 32.68842 -6.04586 8854 ft 258 kts 216°
2026-05-05 15:58 32.67346 -6.05788 8594 ft 255 kts 216°
2026-05-05 15:58 32.65911 -6.06940 8331 ft 247 kts 217°
2026-05-05 15:58 32.64502 -6.08071 8029 ft 241 kts 217°
2026-05-05 15:58 32.63144 -6.09161 7872 ft 229 kts 217°
2026-05-05 15:59 32.61832 -6.10213 7553 ft 226 kts 217°
2026-05-05 15:59 32.60549 -6.11242 7300 ft 222 kts 217°
2026-05-05 15:59 32.59278 -6.12255 7060 ft 218 kts 214°
2026-05-05 15:59 32.58015 -6.13146 7008 ft 202 kts 214°
2026-05-05 16:00 32.56843 -6.13948 6803 ft 192 kts 214°
2026-05-05 16:00 32.55684 -6.14746 6388 ft 195 kts 214°
2026-05-05 16:00 32.54505 -6.15561 5968 ft 195 kts 214°
2026-05-05 16:00 32.53342 -6.16365 5564 ft 195 kts 213°
2026-05-05 16:01 32.52194 -6.17185 5289 ft 188 kts 220°
2026-05-05 16:01 32.51227 -6.18238 4888 ft 189 kts 229°
2026-05-05 16:01 32.50317 -6.19356 4571 ft 186 kts 229°
2026-05-05 16:01 32.49430 -6.20452 4247 ft 187 kts 229°
2026-05-05 16:02 32.48526 -6.21561 4013 ft 185 kts 228°
2026-05-05 16:02 32.47631 -6.22648 3763 ft 183 kts 229°
2026-05-05 16:02 32.46768 -6.23695 3698 ft 172 kts 227°
2026-05-05 16:02 32.45936 -6.24697 3441 ft 171 kts 229°
2026-05-05 16:03 32.45094 -6.25714 3114 ft 172 kts 228°
2026-05-05 16:03 32.44295 -6.26673 2826 ft 163 kts 228°
2026-05-05 16:03 32.43528 -6.27590 2582 ft 149 kts 228°
2026-05-05 16:03 32.42808 -6.28449 2299 ft 143 kts 229°
2026-05-05 16:04 32.42089 -6.29305 2119 ft 148 kts 229°
2026-05-05 16:04 32.41363 -6.30207 1905 ft 152 kts 225°
2026-05-05 16:04 32.40636 -6.31064 1711 ft 144 kts 227°
2026-05-05 16:04 32.40041 -6.31773 1695 ft 87 kts 224°
2026-05-05 16:05 32.39731 -6.32141 1689 ft 46 kts 225°
2026-05-05 16:05 32.39546 -6.32356 1684 ft 31 kts 225°
2026-05-05 16:05 32.39436 -6.32495 1679 ft 20 kts 233°
2026-05-05 16:05 32.39461 -6.32609 1679 ft 15 kts 315°
2026-05-05 16:06 32.39524 -6.32680 1679 ft 9 kts 316°
2026-05-05 16:06 32.39568 -6.32729 1679 ft 8 kts 317°
2026-05-05 16:06 32.39618 -6.32746 1683 ft 8 kts 12°
2026-05-05 16:06 32.39659 -6.32713 1682 ft 4 kts 47°
2026-05-05 16:07 32.39657 -6.32680 1685 ft 4 kts 111°
2026-05-05 16:07 32.39644 -6.32664 1685 ft 0 kts 138°